{"data":{"norad_id":69167,"intl_designator":"2026-111V","name":"STARLINK-37474","alt_names":[],"object_type":"PAYLOAD","status":"ACTIVE","operator":null,"country":"US","launch_date":"2026-05-21","launch_site_code":"AFETR","launch_vehicle":null,"mission":null,"orbit_class":"UNKNOWN","rcs_meters":null,"size_class":null,"mass_kg":null,"dimensions":null,"purposes":["comms"],"wikipedia_slug":null,"has_3d_model":false,"image_url":null,"decayed_at":null,"tle_current":{"epoch":"2026-09-20T00:03:20.986272Z","epoch_age_seconds":69901,"freshness":"FRESH","line1":"1 69167U 26111V   26263.00232623  .00013350  00000+0  40552-3 0  9997","line2":"2 69167  53.1593  67.9480 0000941  79.2455 280.8653 15.34400903 18827","mean_motion":15.34400903,"eccentricity":9.41e-5,"inclination_deg":53.1593,"raan_deg":67.948,"arg_perigee_deg":79.2455,"mean_anomaly_deg":280.8653,"bstar":0.00040552,"rev_number":1882,"period_min":93.847702851619,"perigee_km":462.05683348808,"apogee_km":463.34427911617,"semimajor_km":6840.8375563021,"source":"CELESTRAK","updated_at":"2026-09-20T09:00:44.093340Z"}}}